Time,TemperatureF,DewpointF,PressureIn,WindDirection,WindDirectionDegrees,WindSpeedMPH,WindSpeedGustMPH,Humidity,HourlyPrecipIn,Conditions,Clouds,dailyrainin,SoftwareType,DateUTC
2013-04-23 00:53:00,51.0,40.0,30.18,NW,324,0.0,6.0,66,0.00,,,0.00,,2013-04-23 04:53:00,
2013-04-23 01:02:00,51.0,40.0,30.18,NW,324,0.0,6.0,66,0.00,,,0.00,,2013-04-23 05:02:00,
2013-04-23 01:12:00,51.0,40.0,30.18,NW,324,0.0,6.0,66,0.00,,,0.00,,2013-04-23 05:12:00,
2013-04-23 01:22:00,51.0,40.0,30.18,NW,324,0.0,6.0,66,0.00,,,0.00,,2013-04-23 05:22:00,
2013-04-23 01:52:00,51.0,46.0,30.18,NW,324,3.0,5.0,82,0.00,,,0.00,,2013-04-23 05:52:00,
2013-04-23 02:02:00,51.0,46.0,30.18,NW,324,3.0,5.0,82,0.00,,,0.00,,2013-04-23 06:02:00,
2013-04-23 02:12:00,51.0,46.0,30.18,NW,324,3.0,5.0,82,0.00,,,0.00,,2013-04-23 06:12:00,
2013-04-23 02:21:00,51.0,46.0,30.18,NW,324,3.0,5.0,82,0.00,,,0.00,,2013-04-23 06:21:00,
2013-04-23 02:52:00,49.0,46.0,30.18,NW,324,0.0,5.0,89,0.00,,,0.00,,2013-04-23 06:52:00,
2013-04-23 03:02:00,49.0,46.0,30.18,NW,324,0.0,5.0,89,0.00,,,0.00,,2013-04-23 07:02:00,
2013-04-23 03:11:00,49.0,46.0,30.18,NW,324,0.0,5.0,89,0.00,,,0.00,,2013-04-23 07:11:00,
2013-04-23 03:22:00,49.0,46.0,30.18,NW,324,0.0,5.0,89,0.00,,,0.00,,2013-04-23 07:22:00,
2013-04-23 04:52:00,46.0,44.0,30.18,NW,324,0.0,0.0,91,0.00,,,0.00,,2013-04-23 08:52:00,
2013-04-23 05:02:00,46.0,44.0,30.18,NW,324,0.0,0.0,91,0.00,,,0.00,,2013-04-23 09:02:00,
2013-04-23 05:11:00,46.0,44.0,30.18,NW,324,0.0,0.0,91,0.00,,,0.00,,2013-04-23 09:11:00,
2013-04-23 05:21:00,44.0,41.0,30.18,NW,324,0.0,0.0,90,0.00,,,0.00,,2013-04-23 09:21:00,
2013-04-23 05:33:00,44.0,41.0,30.18,NW,324,0.0,0.0,90,0.00,,,0.00,,2013-04-23 09:33:00,
2013-04-23 05:43:00,44.0,41.0,30.18,NW,324,0.0,0.0,90,0.00,,,0.00,,2013-04-23 09:43:00,
2013-04-23 05:52:00,44.0,41.0,30.18,NW,324,0.0,0.0,90,0.00,,,0.00,,2013-04-23 09:52:00,
2013-04-23 06:53:00,43.0,40.0,30.18,NW,325,0.0,0.0,90,0.00,,,0.00,,2013-04-23 10:53:00,
2013-04-23 07:03:00,43.0,40.0,30.18,NW,325,0.0,0.0,90,0.00,,,0.00,,2013-04-23 11:03:00,
2013-04-23 07:12:00,43.0,40.0,30.15,NW,324,0.0,0.0,90,0.00,,,0.00,,2013-04-23 11:12:00,
2013-04-23 07:21:00,43.0,40.0,30.15,NW,324,0.0,0.0,90,0.00,,,0.00,,2013-04-23 11:21:00,
2013-04-23 07:32:00,43.0,40.0,30.15,NW,324,0.0,0.0,90,0.00,,,0.00,,2013-04-23 11:32:00,
2013-04-23 07:43:00,43.0,40.0,30.15,NW,324,0.0,0.0,90,0.00,,,0.00,,2013-04-23 11:43:00,
2013-04-23 07:52:00,43.0,40.0,30.15,NW,324,0.0,0.0,90,0.00,,,0.00,,2013-04-23 11:52:00,
2013-04-23 08:22:00,60.0,42.0,30.21,NW,324,0.0,0.0,52,0.00,,,0.00,,2013-04-23 12:22:00,
2013-04-23 08:32:00,60.0,42.0,30.21,NW,324,0.0,0.0,52,0.00,,,0.00,,2013-04-23 12:32:00,
2013-04-23 08:42:00,60.0,42.0,30.21,NW,324,0.0,0.0,52,0.00,,,0.00,,2013-04-23 12:42:00,
2013-04-23 08:52:00,60.0,42.0,30.21,NW,324,0.0,0.0,52,0.00,,,0.00,,2013-04-23 12:52:00,
2013-04-23 09:22:00,68.0,34.0,30.18,NE,41,7.0,10.0,28,0.00,,,0.00,,2013-04-23 13:22:00,
2013-04-23 09:32:00,68.0,34.0,30.18,NE,41,7.0,10.0,28,0.00,,,0.00,,2013-04-23 13:32:00,
2013-04-23 09:42:00,68.0,34.0,30.18,NE,41,7.0,10.0,28,0.00,,,0.00,,2013-04-23 13:42:00,
2013-04-23 09:52:00,77.0,38.0,30.21,North,6,5.0,10.0,25,0.00,,,0.00,,2013-04-23 13:52:00,
2013-04-23 10:02:00,77.0,38.0,30.21,North,6,5.0,10.0,25,0.00,,,0.00,,2013-04-23 14:02:00,
2013-04-23 10:11:00,77.0,38.0,30.21,North,6,5.0,10.0,25,0.00,,,0.00,,2013-04-23 14:11:00,
2013-04-23 10:22:00,82.0,42.0,30.21,NE,43,5.0,7.0,24,0.00,,,0.00,,2013-04-23 14:22:00,
2013-04-23 10:32:00,82.0,42.0,30.21,NE,43,5.0,7.0,24,0.00,,,0.00,,2013-04-23 14:32:00,
2013-04-23 10:42:00,82.0,42.0,30.21,NE,43,5.0,7.0,24,0.00,,,0.00,,2013-04-23 14:42:00,
2013-04-23 10:52:00,82.0,42.0,30.21,NE,43,5.0,7.0,24,0.00,,,0.00,,2013-04-23 14:52:00,
2013-04-23 11:53:00,74.0,40.0,30.21,SSW,196,3.0,6.0,29,0.00,,,0.00,,2013-04-23 15:53:00,
2013-04-23 12:03:00,74.0,40.0,30.21,SSW,196,3.0,6.0,29,0.00,,,0.00,,2013-04-23 16:03:00,
2013-04-23 12:12:00,74.0,40.0,30.21,SSW,196,3.0,6.0,29,0.00,,,0.00,,2013-04-23 16:12:00,
2013-04-23 12:23:00,74.0,40.0,30.21,SSW,196,3.0,6.0,29,0.00,,,0.00,,2013-04-23 16:23:00,
2013-04-23 12:53:00,76.0,42.0,30.18,ESE,115,0.0,5.0,30,0.00,,,0.00,,2013-04-23 16:53:00,
2013-04-23 13:02:00,76.0,42.0,30.18,ESE,115,0.0,5.0,30,0.00,,,0.00,,2013-04-23 17:02:00,
2013-04-23 13:12:00,76.0,42.0,30.18,ESE,115,0.0,5.0,30,0.00,,,0.00,,2013-04-23 17:12:00,
2013-04-23 13:22:00,76.0,42.0,30.18,ESE,115,0.0,5.0,30,0.00,,,0.00,,2013-04-23 17:22:00,
2013-04-23 14:22:00,80.0,44.0,30.15,West,277,4.0,7.0,28,0.00,,,0.00,,2013-04-23 18:22:00,
2013-04-23 14:32:00,80.0,44.0,30.15,West,277,4.0,7.0,28,0.00,,,0.00,,2013-04-23 18:32:00,
2013-04-23 14:42:00,80.0,44.0,30.15,West,277,4.0,7.0,28,0.00,,,0.00,,2013-04-23 18:42:00,
2013-04-23 14:52:00,80.0,43.0,30.12,SW,227,3.0,9.0,27,0.00,,,0.00,,2013-04-23 18:52:00,
2013-04-23 15:02:00,80.0,43.0,30.12,SW,227,3.0,9.0,27,0.00,,,0.00,,2013-04-23 19:02:00,
2013-04-23 15:11:00,80.0,43.0,30.12,SW,227,3.0,9.0,27,0.00,,,0.00,,2013-04-23 19:11:00,
2013-04-23 15:22:00,81.0,44.0,30.12,SE,132,0.0,9.0,27,0.00,,,0.00,,2013-04-23 19:22:00,
2013-04-23 15:32:00,81.0,44.0,30.12,SE,132,0.0,9.0,27,0.00,,,0.00,,2013-04-23 19:32:00,
2013-04-23 15:42:00,81.0,44.0,30.12,SE,132,0.0,9.0,27,0.00,,,0.00,,2013-04-23 19:42:00,
2013-04-23 15:52:00,81.0,44.0,30.12,SE,132,0.0,9.0,27,0.00,,,0.00,,2013-04-23 19:52:00,
2013-04-23 17:53:00,87.0,45.0,30.06,WSW,256,4.0,7.0,23,0.00,,,0.00,,2013-04-23 21:53:00,
2013-04-23 18:03:00,87.0,45.0,30.06,WSW,256,4.0,7.0,23,0.00,,,0.00,,2013-04-23 22:03:00,
2013-04-23 18:12:00,87.0,45.0,30.06,WSW,256,4.0,7.0,23,0.00,,,0.00,,2013-04-23 22:12:00,
2013-04-23 18:23:00,87.0,45.0,30.06,WSW,256,4.0,7.0,23,0.00,,,0.00,,2013-04-23 22:23:00,
2013-04-23 19:22:00,76.0,41.0,30.06,SSW,192,4.0,7.0,29,0.00,,,0.00,,2013-04-23 23:22:00,
2013-04-23 19:32:00,76.0,41.0,30.06,SSW,192,4.0,7.0,29,0.00,,,0.00,,2013-04-23 23:32:00,
2013-04-23 19:42:00,76.0,41.0,30.06,SSW,192,4.0,7.0,29,0.00,,,0.00,,2013-04-23 23:42:00,
2013-04-23 19:52:00,76.0,41.0,30.06,SSW,192,4.0,7.0,29,0.00,,,0.00,,2013-04-23 23:52:00,
2013-04-23 20:22:00,72.0,46.0,30.03,South,190,0.0,0.0,39,0.00,,,0.00,,2013-04-24 00:22:00,
2013-04-23 20:32:00,72.0,46.0,30.03,South,190,0.0,0.0,39,0.00,,,0.00,,2013-04-24 00:32:00,
2013-04-23 20:42:00,72.0,46.0,30.03,South,190,0.0,0.0,39,0.00,,,0.00,,2013-04-24 00:42:00,
2013-04-23 20:52:00,72.0,46.0,30.03,South,190,0.0,0.0,39,0.00,,,0.00,,2013-04-24 00:52:00,
2013-04-23 21:52:00,62.0,45.0,30.03,South,190,0.0,0.0,54,0.00,,,0.00,,2013-04-24 01:52:00,
2013-04-23 22:02:00,62.0,45.0,30.03,South,190,0.0,0.0,54,0.00,,,0.00,,2013-04-24 02:02:00,
2013-04-23 22:20:00,62.0,45.0,30.03,South,190,0.0,0.0,54,0.00,,,0.00,,2013-04-24 02:20:00,
2013-04-23 22:29:00,60.0,52.0,30.06,South,191,0.0,0.0,74,0.00,,,0.00,,2013-04-24 02:29:00,
2013-04-23 22:30:00,60.0,49.0,30.03,South,190,0.0,0.0,66,0.00,,,0.00,,2013-04-24 02:30:00,
2013-04-23 22:41:00,60.0,49.0,30.03,South,190,0.0,0.0,66,0.00,,,0.00,,2013-04-24 02:41:00,
2013-04-23 22:49:00,60.0,49.0,30.03,South,190,0.0,0.0,66,0.00,,,0.00,,2013-04-24 02:49:00,
2013-04-23 22:56:00,60.0,52.0,30.06,South,191,0.0,0.0,74,0.00,,,0.00,,2013-04-24 02:56:00,
2013-04-23 23:12:00,60.0,52.0,30.06,South,191,0.0,0.0,74,0.00,,,0.00,,2013-04-24 03:12:00,
2013-04-23 23:18:00,60.0,52.0,30.06,South,191,0.0,0.0,74,0.00,,,0.00,,2013-04-24 03:18:00,